Find Geely Xingzuo 03 zu 03 xing

NORAD ID: 61013 Int'l Des: 2024-159 Owner: GEESP Country: CN Constellation: geesatcom operational
LEOCIRCULAR

Live Position

Loading 3D Globe...

About Geely Xingzuo 03 zu 03 xing

Description loading...

Upcoming Passes

Passes for default location (London). Set your location on the main map for personalized predictions.

Altitude History

Loading altitude history...

Two-Line Element Set

1 61013U 24159C 26107.28720933 .00001289 00000-0 18017-3 0 9992
2 61013 49.9953 4.5174 0005612 256.3548 103.6765 14.84004401 87795
Epoch: Apr 17, 2026 • Age: 9 hours

Current Status

Altitude 629.5 km
Velocity 7.55 km/s
Sub-Earth Point -49.43°S, 171.83°E
Launch Date Sep 5, 2024
Age 1.6 years
Type other

Technical Details

Classification Payload
Mass 130.00 kg
Dry Mass 130.00 kg
Total Mass 130.00 kg
Length 1.00 m
Diameter 0.50 m
Span 2.00 m
Shape Box + 2 pan
Manufacturer GWCG
Bus Type GPS100
Phase Status In Orbit
Owner/State GEESP/CN

Most Searched